Taylor Fork

This weather station provides wind speed, gust or max wind speed, and wind direction at 9460 ft. near Pika Point above Sunlight Basin.  

This data can be used with temperature and precipitation data from the Carrot Basin SNOTEL site. If the data below is not displayed or up to date, view data here.

This weather station was purchased by the Friends of the Avalanche Center.

Elevation
9460ft
Jump to table bottom
Date Time Temperature
deg F
RH, % Wind Speed Wind Gust Wind Direction
02/22/18 22:16 2.3 91 8 15 SE - 129
02/22/18 21:16 2.5 91 9 14 SE - 131
02/22/18 20:16 2.7 91 6 12 SE - 138
02/22/18 19:16 2.5 91 7 11 SE - 145
02/22/18 18:16 3.4 92 7 12 S - 171
02/22/18 17:16 4.6 92 8 17 S - 168
02/22/18 16:16 6.8 92 10 15 S - 171
02/22/18 15:16 6.9 92 10 15 S - 164
02/22/18 14:16 7.5 92 10 18 S - 167
02/22/18 13:16 6.0 92 12 18 S - 185
02/22/18 12:16 5.2 92 12 20 S - 173
02/22/18 11:16 4.2 91 10 18 SE - 150
02/22/18 10:16 3.7 91 13 21 S - 163
02/22/18 09:16 1.2 90 13 20 SE - 152
02/22/18 08:16 -1.3 90 13 21 SE - 152
02/22/18 07:16 -2.1 90 13 20 S - 159
02/22/18 06:16 -2.7 89 14 18 S - 163
02/22/18 05:16 -4.0 89 13 18 S - 159
02/22/18 04:16 -3.6 89 14 18 S - 170
02/22/18 03:16 -3.0 90 13 20 SW - 204
02/22/18 02:16 -1.9 90 14 20 SW - 211
02/22/18 01:16 -2.2 90 15 23 SW - 205
02/22/18 00:16 -1.6 90 12 20 SW - 219
02/21/18 23:16 -1.5 90 12 19 SW - 227
02/21/18 22:16 -1.3 90 13 21 SW - 236
02/21/18 21:16 -0.9 90 14 22 SW - 227
02/21/18 20:16 -0.9 90 14 21 SW - 233
02/21/18 19:16 -0.9 90 16 24 SW - 233
02/21/18 18:16 -0.9 90 15 22 SW - 218
02/21/18 17:16 -1.2 90 14 22 SW - 216
02/21/18 16:16 -0.9 90 14 24 SW - 215
02/21/18 15:16 -0.9 89 14 21 SW - 208
02/21/18 14:16 -0.9 89 12 21 SW - 218
02/21/18 13:16 -0.5 89 12 22 SW - 222
02/21/18 12:16 -1.7 88 14 25 SW - 215
02/21/18 11:16 -4.0 88 16 26 SW - 208
02/21/18 10:16 -4.8 88 14 22 SW - 211
02/21/18 09:16 -6.6 87 13 23 SW - 227
02/21/18 08:16 -7.6 87 15 21 SW - 222
02/21/18 07:16 -8.3 88 16 22 SW - 233
02/21/18 06:16 -8.2 87 14 22 SW - 223
02/21/18 05:16 -8.9 87 14 24 SW - 219
02/21/18 04:16 -9.9 87 14 24 SW - 209
02/21/18 03:16 -9.9 87 15 23 SW - 215
02/21/18 02:16 -9.9 87 17 25 SW - 229
02/21/18 01:16 -10.2 87 17 25 S - 185
02/21/18 00:16 -11.2 86 15 23 S - 168
02/20/18 23:16 -11.4 86 17 24 S - 195
02/20/18 22:16 -11.0 87 17 25 SW - 218
02/20/18 21:16 -10.5 87 14 24 SW - 226
https://datagarrison.com/users/300034012539980/300234010341360/temp/300234010341360_live.txt